[[{"header":{"parameterUnit":"m.s-1","parameterCategory":1,"la1":30.2991,"la2":30.254,"lo1":-89.0895,"lo2":-89.0444,"dy":0.0017,"dx":0.0017,"nx":28,"ny":28,"refTime":"2025-03-30T09:00:00:Z","depth":0,"parameterNumber":2,"parameterNumberName":"U-component_of_WINDS"},"data":[0,0,0,0,0,0,0,0,0,0,0,0,0,0,0,0,0,0,0,0,0,0,0,0,0,0,0,0,0,0,0,0,0,0,0,0,0,0,0,0,0,0,0,0,0,0,0,0,0,0,0,0,0,0,0,0,0,0,-1.5482,-1.5483,0,-1.5576,-1.5577,-1.5578,-1.5588,-1.5587,-1.5586,-1.5585,-1.5682,-1.5686,-1.5689,0,0,0,0,0,0,0,0,0,0,0,0,0,-1.531,-1.5313,-1.5482,-1.5483,-1.5484,-1.5576,-1.5577,-1.5579,-1.5588,-1.5587,-1.5586,-1.5584,-1.5681,-1.5685,-1.5689,0,0,0,0,0,0,0,0,0,0,0,0,0,-1.5392,-1.5314,-1.5482,-1.55,-1.5503,-1.5576,-1.5577,-1.5579,-1.5588,-1.5587,-1.5585,-1.5584,-1.568,-1.5685,-1.569,-1.5752,0,0,-1.5706,-1.5708,0,0,0,0,0,0,0,0,-1.5388,-1.5399,-1.5496,-1.5499,-1.5502,-1.5569,-1.5552,-1.5637,-1.5589,-1.5556,-1.5585,-1.5583,-1.5646,-1.5654,-1.5675,-1.5756,-1.576,-1.5706,-1.571,-1.5712,-1.5713,0,0,0,0,0,0,0,-1.5382,-1.5395,-1.5519,-1.5498,-1.5501,-1.5503,-1.5514,-1.5568,-1.5608,-1.5559,-1.5559,-1.557,-1.5647,-1.5669,-1.5677,-1.5762,-1.5706,-1.5711,-1.5714,-1.5716,-1.5896,-1.5898,0,0,0,0,0,0,-1.5373,-1.539,-1.5516,-1.5522,-1.544,-1.5508,-1.5519,-1.5549,-1.5607,-1.5615,-1.5572,-1.557,-1.5661,-1.5671,-1.568,-1.5754,-1.5712,-1.5717,-1.572,-1.5895,-1.5897,-1.5899,0,0,0,0,0,0,-1.5369,-1.5384,-1.5513,-1.5456,-1.5473,-1.5512,-1.5546,-1.5551,-1.5574,-1.5617,-1.5624,-1.5587,-1.566,-1.5673,-1.5733,-1.5758,-1.5719,-1.5724,-1.5893,-1.5895,-1.5898,-1.5904,0,0,0,0,0,0,-1.5364,-1.5383,-1.5407,-1.5457,-1.5476,-1.5564,-1.5547,-1.5554,-1.5583,-1.5582,-1.5634,-1.5641,-1.566,-1.5725,-1.5738,-1.5764,-1.5728,-1.5891,-1.5894,-1.5897,-1.5902,-1.5906,-1.591,0,0,0,0,0,-1.5358,-1.5405,-1.5408,-1.5423,-1.5507,-1.5565,-1.5576,-1.5597,-1.5585,-1.5609,-1.5636,-1.5639,-1.5754,-1.5731,-1.5746,-1.5774,-1.5889,-1.5893,-1.5897,-1.59,-1.5905,-1.591,0,0,0,0,0,0,-1.5358,-1.5412,-1.5416,-1.5481,-1.5518,-1.5567,-1.5598,-1.5603,-1.5645,-1.5643,-1.5668,-1.5679,-1.5738,-1.5763,-1.5737,-1.5836,-1.582,-1.5827,-1.5817,-1.5823,-1.5827,-1.5819,-1.5732,0,0,0,0,0,-1.5365,-1.5408,-1.5454,-1.5507,-1.5526,-1.5558,-1.5585,-1.5598,-1.5638,-1.5654,-1.5686,-1.5725,-1.5769,-1.5798,-1.5841,-1.5906,-1.5916,-1.5932,-1.5937,-1.594,-1.5945,-1.5978,-1.5985,-1.5911,-1.5911,-1.5911,0,0,-1.5381,-1.5416,-1.5442,-1.5508,-1.5538,-1.5582,-1.5572,-1.5619,-1.5651,-1.5661,-1.5719,-1.5744,-1.5789,-1.5851,-1.588,-1.5873,-1.5968,-1.5945,-1.5947,-1.595,-1.5983,-1.599,-1.5996,-1.5913,-1.5913,-1.5912,0,0,-1.5432,-1.5464,-1.551,-1.5541,-1.5587,-1.5608,-1.5619,-1.5667,-1.5684,-1.5742,-1.575,-1.5789,-1.5866,-1.5896,-1.5922,-1.5983,-1.5986,-1.5997,-1.6019,-1.6051,-1.6057,-1.6062,-1.6081,-1.6088,-1.6002,-1.6002,-1.6002,0,-1.5446,-1.5512,-1.5534,-1.558,-1.5607,-1.5618,-1.5664,-1.5693,-1.5751,-1.577,-1.5762,-1.5857,-1.5888,-1.5956,-1.5971,-1.5992,-1.6004,-1.599,-1.6054,-1.606,-1.6065,-1.6084,-1.6091,-1.6003,-1.6003,-1.6003,-1.6003,0,-1.5525,-1.5571,-1.5603,-1.5657,-1.5689,-1.5735,-1.5763,-1.5793,-1.5803,-1.5825,-1.5884,-1.5921,-1.5971,-1.5989,-1.6,-1.6058,-1.6052,-1.6049,-1.6033,-1.6072,-1.609,-1.6098,-1.6004,-1.6004,-1.6004,-1.6003,0,0,-1.5578,-1.5643,-1.5654,-1.5678,-1.5729,-1.5764,-1.5811,-1.5859,-1.5883,-1.5923,-1.5961,-1.6025,-1.6021,-1.6051,-1.6065,-1.6094,-1.6137,-1.6087,-1.6088,-1.6093,-1.6201,-1.6201,-1.6209,-1.614,-1.6142,-1.6143,-1.6196,0,-1.5633,-1.5714,-1.5735,-1.5804,-1.5845,-1.5856,-1.5896,-1.5931,-1.5953,-1.5991,-1.6015,-1.6059,-1.6052,-1.607,-1.6099,-1.6125,-1.6158,-1.6122,-1.6175,-1.6176,-1.6161,-1.6219,-1.622,-1.6268,-1.6203,-1.6205,-1.6206,0,-1.5707,-1.5747,-1.582,-1.5863,-1.5881,-1.5917,-1.5962,-1.5999,-1.6038,-1.6052,-1.6084,-1.6095,-1.6143,-1.6126,-1.6191,-1.6166,-1.6189,-1.6205,-1.6208,-1.6212,-1.6192,-1.6222,-1.6285,-1.6291,-1.6217,-1.6216,-1.6216,0,-1.5735,-1.5807,-1.5859,-1.588,-1.5933,-1.5957,-1.598,-1.6019,-1.6046,-1.6086,-1.6103,-1.6148,-1.6173,-1.6207,-1.623,-1.6216,-1.6292,-1.6278,-1.6304,-1.6303,-1.6318,-1.6316,-1.6382,-1.6337,-1.6337,-1.6336,-1.6336,0,-1.5792,-1.5836,-1.5872,-1.5904,-1.5953,-1.5976,-1.6024,-1.6048,-1.6081,-1.6118,-1.6131,-1.6165,-1.6194,-1.6232,-1.625,-1.63,-1.6312,-1.6323,-1.6327,-1.6321,-1.6319,-1.6334,-1.6331,-1.6338,-1.6338,-1.6338,-1.6337,0,-1.5831,-1.5857,-1.5914,-1.5959,-1.5972,-1.6005,-1.6044,-1.6075,-1.6097,-1.6143,-1.6155,-1.619,-1.6234,-1.6261,-1.6319,-1.6331,-1.6385,-1.6389,-1.6371,-1.6372,-1.6396,-1.6392,-1.6472,-1.6483,-1.6432,-1.6433,-1.6433,0,-1.5864,-1.5898,-1.5946,-1.5971,-1.5994,-1.6034,-1.6061,-1.6086,-1.6113,-1.6161,-1.6186,-1.6231,-1.6269,-1.634,-1.637,-1.6413,-1.6417,-1.6442,-1.6424,-1.6415,-1.6415,-1.6411,-1.6414,-1.6444,-1.6445,-1.6445,-1.6446,0,-1.592,-1.5931,-1.597,-1.6012,-1.6044,-1.6079,-1.6114,-1.6134,-1.6164,-1.6195,-1.624,-1.6269,-1.6327,-1.6371,-1.6417,-1.6441,-1.6448,-1.6451,-1.6459,-1.6452,-1.6439,-1.6444,-1.6377,-1.6449,-1.6449,-1.6448,-1.6448,-1.6448,-1.5956,-1.5985,-1.6023,-1.6065,-1.6093,-1.6125,-1.6156,-1.6181,-1.622,-1.6267,-1.628,-1.6327,-1.6365,-1.6427,-1.6452,-1.6489,-1.6485,-1.6497,-1.6499,-1.6501,-1.6501,-1.6435,-1.6498,-1.6498,-1.6498,-1.6498,-1.6498,0,-1.601,-1.6035,-1.6073,-1.6121,-1.6154,-1.6157,-1.6196,-1.6223,-1.6264,-1.6299,-1.6335,-1.6386,-1.6429,-1.6462,-1.6506,-1.6529,-1.6533,-1.654,-1.6537,-1.6542,-1.6503,-1.6491,-1.6535,-1.6535,-1.6535,-1.6535,-1.6535,-1.6535,-1.6043,-1.6091,-1.6107,-1.6169,-1.6194,-1.6239,-1.6261,-1.629,-1.6317,-1.6374,-1.6409,-1.643,-1.6464,-1.651,-1.6549,-1.6558,-1.6573,-1.6578,-1.6587,-1.6549,-1.6545,-1.6541,-1.6529,-1.6582,-1.6582,-1.6623,-1.6623,-1.6623]},{"header":{"parameterUnit":"m.s-1","parameterCategory":1,"la1":30.2991,"la2":30.254,"lo1":-89.0895,"lo2":-89.0444,"dy":0.0017,"dx":0.0017,"nx":28,"ny":28,"refTime":"2025-03-30T09:00:00:Z","depth":0,"parameterNumber":3,"parameterNumberName":"V-component_of_WINDS"},"data":[0,0,0,0,0,0,0,0,0,0,0,0,0,0,0,0,0,0,0,0,0,0,0,0,0,0,0,0,0,0,0,0,0,0,0,0,0,0,0,0,0,0,0,0,0,0,0,0,0,0,0,0,0,0,0,0,0,0,3.9121,3.9121,0,3.9121,3.9121,3.9121,3.9165,3.9166,3.9167,3.9168,3.9162,3.916,3.9159,0,0,0,0,0,0,0,0,0,0,0,0,0,3.9159,3.9158,3.9121,3.9121,3.9121,3.9121,3.9121,3.9121,3.9165,3.9166,3.9168,3.9169,3.9162,3.9161,3.9159,0,0,0,0,0,0,0,0,0,0,0,0,0,3.9149,3.9158,3.9121,3.9143,3.9145,3.9121,3.9121,3.9121,3.9164,3.9166,3.9168,3.917,3.9163,3.9161,3.9159,3.9111,0,0,3.9153,3.9152,0,0,0,0,0,0,0,0,3.9149,3.9147,3.914,3.9142,3.9144,3.9145,3.9131,3.9117,3.9164,3.9157,3.9168,3.9171,3.9154,3.9153,3.9149,3.9111,3.911,3.9153,3.9151,3.9151,3.915,0,0,0,0,0,0,0,3.915,3.9147,3.9121,3.914,3.9142,3.9153,3.9153,3.9129,3.9145,3.9158,3.9161,3.9161,3.9156,3.915,3.9149,3.911,3.9153,3.9151,3.915,3.9149,3.9038,3.9036,0,0,0,0,0,0,3.9148,3.9148,3.9121,3.9121,3.9151,3.9151,3.9151,3.9143,3.9146,3.9148,3.9159,3.9163,3.9153,3.9151,3.9149,3.9097,3.9151,3.9149,3.9148,3.904,3.9038,3.9036,0,0,0,0,0,0,3.9149,3.9145,3.9121,3.9135,3.9133,3.9148,3.9138,3.9142,3.9137,3.9147,3.915,3.9151,3.9154,3.9152,3.9122,3.9097,3.9148,3.9146,3.9042,3.9039,3.9037,3.899,0,0,0,0,0,0,3.915,3.9145,3.9127,3.9135,3.9132,3.9094,3.9136,3.914,3.9134,3.9139,3.914,3.9142,3.9155,3.9124,3.912,3.9095,3.9145,3.9044,3.9041,3.9038,3.8993,3.8986,3.8979,0,0,0,0,0,3.9151,3.9111,3.9126,3.9123,3.911,3.9092,3.9091,3.9109,3.9132,3.9114,3.9122,3.9142,3.91,3.9121,3.9116,3.909,3.9046,3.9042,3.9038,3.8997,3.8987,3.8979,0,0,0,0,0,0,3.9097,3.9113,3.9129,3.9091,3.9091,3.91,3.9078,3.9098,3.9089,3.9093,3.9114,3.9114,3.9082,3.9083,3.9105,3.9047,3.9077,3.9072,3.9047,3.9038,3.9031,3.9032,3.9143,0,0,0,0,0,3.9082,3.9067,3.9081,3.9046,3.9046,3.9062,3.9055,3.9069,3.9069,3.9068,3.9073,3.907,3.9057,3.9048,3.9036,3.8994,3.8997,3.8974,3.8967,3.8961,3.8957,3.8939,3.893,3.9023,3.9023,3.9023,0,0,3.9048,3.9055,3.9043,3.9036,3.9037,3.9022,3.9061,3.9042,3.9031,3.9064,3.9038,3.9042,3.904,3.9006,3.899,3.9006,3.8932,3.8956,3.8951,3.895,3.8934,3.8925,3.8917,3.902,3.902,3.9021,0,0,3.8979,3.8982,3.8956,3.8958,3.8961,3.8973,3.8967,3.8975,3.898,3.8954,3.898,3.8967,3.8943,3.8943,3.8939,3.8877,3.8896,3.8872,3.8834,3.8816,3.8809,3.8803,3.8783,3.8776,3.8867,3.8867,3.8867,0,3.8936,3.8916,3.8939,3.892,3.8917,3.8951,3.8925,3.8925,3.8923,3.892,3.8938,3.8912,3.8913,3.8881,3.8867,3.8861,3.8856,3.8872,3.8809,3.8803,3.8797,3.8779,3.8771,3.8864,3.8865,3.8865,3.8865,0,3.8865,3.885,3.8829,3.8831,3.8825,3.8802,3.8822,3.8814,3.883,3.884,3.8816,3.8819,3.8811,3.8804,3.8818,3.8775,3.8785,3.8805,3.8836,3.8785,3.8769,3.8761,3.886,3.8861,3.8862,3.8863,0,0,3.876,3.8779,3.8771,3.8774,3.8782,3.8771,3.8751,3.8746,3.874,3.8738,3.8723,3.8705,3.8725,3.8722,3.8736,3.872,3.8675,3.8743,3.8744,3.8732,3.8632,3.8618,3.8609,3.8688,3.8687,3.8686,3.8633,0,3.8696,3.8665,3.8688,3.8653,3.8642,3.8676,3.8659,3.8662,3.8672,3.8664,3.8674,3.8662,3.8689,3.8687,3.8674,3.8683,3.8655,3.8687,3.8675,3.8675,3.8676,3.86,3.8584,3.8534,3.8626,3.8625,3.8624,0,3.8616,3.8616,3.8581,3.8597,3.8593,3.8577,3.8577,3.8568,3.8574,3.8583,3.8581,3.8601,3.8584,3.8615,3.8592,3.8613,3.861,3.8614,3.8613,3.8613,3.8647,3.86,3.8518,3.8511,3.8614,3.8615,3.8615,0,3.8547,3.8538,3.8517,3.8518,3.8534,3.8524,3.853,3.8537,3.8535,3.8534,3.8533,3.8528,3.8527,3.8523,3.8542,3.8562,3.8518,3.8549,3.8526,3.8526,3.8515,3.8515,3.8433,3.851,3.851,3.851,3.851,0,3.8475,3.8452,3.8487,3.8474,3.8451,3.8478,3.8454,3.8464,3.8471,3.8461,3.8489,3.8479,3.8504,3.8497,3.8511,3.8492,3.849,3.8497,3.8502,3.8496,3.8495,3.8494,3.8499,3.8508,3.8509,3.8509,3.851,0,3.8393,3.8415,3.8395,3.8414,3.8419,3.8401,3.8418,3.8407,3.8421,3.8408,3.8407,3.8428,3.8421,3.844,3.8435,3.8445,3.8419,3.8427,3.8417,3.8421,3.8397,3.84,3.8312,3.8303,3.8384,3.8383,3.8383,0,3.8346,3.833,3.835,3.8347,3.8353,3.8346,3.8345,3.8371,3.8369,3.8377,3.8366,3.8362,3.8361,3.8349,3.8363,3.8361,3.8371,3.8341,3.837,3.8367,3.8374,3.8375,3.8375,3.8334,3.8333,3.8332,3.8332,0,3.8261,3.8274,3.8272,3.8275,3.8274,3.8277,3.8281,3.8277,3.8306,3.8302,3.8297,3.8297,3.8295,3.8291,3.8293,3.8299,3.832,3.8323,3.8317,3.8312,3.8308,3.8312,3.8403,3.8324,3.8325,3.8325,3.8326,3.8326,3.8196,3.8186,3.82,3.8198,3.8206,3.8211,3.8203,3.8218,3.8216,3.8218,3.8234,3.8227,3.8236,3.8242,3.8246,3.8241,3.8255,3.8247,3.8245,3.8243,3.8241,3.8308,3.8241,3.8241,3.8241,3.8242,3.8242,0,3.8115,3.8127,3.8125,3.8134,3.8133,3.8157,3.8164,3.8162,3.8157,3.8165,3.8165,3.8161,3.816,3.8176,3.8176,3.817,3.818,3.8169,3.817,3.8172,3.8226,3.8232,3.8161,3.8161,3.8161,3.8161,3.8161,3.8161,3.8073,3.8059,3.8074,3.8064,3.8076,3.8072,3.8075,3.808,3.8088,3.8084,3.8084,3.8095,3.8108,3.811,3.811,3.8115,3.8115,3.8101,3.811,3.816,3.8168,3.8175,3.8181,3.81,3.81,3.8056,3.8056,3.8056]}]]